Date,TemperatureHighF,TemperatureAvgF,TemperatureLowF,DewpointHighF,DewpointAvgF,DewpointLowF,HumidityHigh,HumidityAvg,HumidityLow,PressureMaxIn,PressureMinIn,WindSpeedMaxMPH,WindSpeedAvgMPH,GustSpeedMaxMPH,PrecipitationSumIn
2013-8-1,88.0,84.8,81.7,74.9,73.7,71.6,78,70,61,30.05,29.92,15,4,17,0.00
2013-8-2,90.1,87.9,81.6,76.5,73.9,66.6,74,63,52,30.02,29.95,28,4,30,0.12
2013-8-3,88.8,77.9,74.2,76.8,74.2,71.4,94,89,65,30.14,30.08,13,1,16,0.39
2013-8-4,91.7,82.4,76.5,78.8,75.3,71.0,95,81,54,30.13,29.97,16,2,18,0.27
2013-8-5,92.3,82.5,77.7,78.9,75.1,70.2,92,79,51,30.06,29.93,12,2,15,0.00
2013-8-6,91.8,83.2,76.8,76.8,74.8,71.2,93,77,60,30.00,29.87,12,2,13,0.00
2013-8-7,90.3,84.0,78.4,77.2,74.7,72.5,88,74,58,29.99,29.90,12,2,17,0.00
2013-8-8,91.0,85.5,82.4,76.5,74.4,68.1,80,70,55,30.01,29.93,15,4,20,0.00
2013-8-9,87.8,83.0,78.9,76.0,73.5,68.0,89,73,60,30.07,29.96,22,4,27,0.16
2013-8-10,91.2,85.5,81.6,76.1,75.1,72.9,82,72,57,30.13,30.03,15,4,16,0.00
2013-8-11,89.6,85.3,82.2,76.7,75.4,73.4,80,72,63,30.14,30.04,15,5,15,0.00
2013-8-12,89.5,84.7,80.8,76.2,74.1,71.3,79,71,57,30.10,29.99,14,4,15,0.00
2013-8-13,91.0,85.9,81.5,76.8,74.5,70.3,84,70,54,30.04,29.93,15,3,15,0.00
2013-8-19,90.4,86.4,83.4,76.9,75.2,72.9,78,70,61,30.02,29.94,14,4,16,0.56
2013-8-20,87.2,83.0,81.3,75.9,74.9,72.5,83,77,66,30.05,29.99,10,2,13,0.00
2013-8-23,90.6,85.8,83.2,76.8,75.1,72.6,80,71,57,30.01,29.92,14,4,22,0.01
2013-8-24,91.3,85.2,79.8,76.5,74.9,71.5,83,72,57,30.10,29.97,14,3,15,0.00
2013-8-25,86.0,82.0,77.8,77.0,74.8,72.8,93,79,66,30.16,30.03,11,3,13,0.10
2013-8-26,87.9,82.8,79.9,75.8,73.3,70.2,83,73,62,30.12,30.00,18,2,22,0.00
2013-8-27,87.6,80.9,76.1,75.7,72.8,68.2,92,77,57,30.05,29.96,11,1,12,0.00
2013-8-28,84.1,79.8,75.8,75.4,73.4,70.7,94,81,71,30.05,29.96,11,2,12,0.66
2013-8-29,89.8,83.1,75.3,76.3,74.7,72.0,93,77,58,30.03,29.91,13,2,13,0.01
2013-8-30,91.0,84.0,76.6,76.5,73.3,69.4,92,71,51,30.02,29.89,13,2,15,0.00
2013-8-31,90.8,80.5,74.9,77.5,74.2,70.6,94,82,59,29.99,29.93,10,2,12,0.13